Location: Stara Lesna
(49.1528°N, 20.2911°E)
Time: 06:05:18
(UTC+02:00)

Aureole 2 Rocket - Pass Details

Date: 21 September 2019
Orbit: 313 x 475 km, 73.9° (Epoch: 17 October)

Event Time Altitude Azimuth Distance (km) Brightness Sun altitude
Exits shadow 04:27:41 37° 128° (SE) 517 2.9 -19.1°
Maximum altitude 04:27:59 39° 109° (ESE) 498 3.0 -19.0°
Drops below altitude 10° 04:30:30 10° 38° (NE) 1,224 5.5 -18.6°
Sets 04:32:29 0° 30° (NNE) 2,063 6.7 -18.4°
